#timestamp,LO_Frequency,Hit,StdDev 
1594141215.3,286047008.8,N
1594141235.1,286047009.1,N
1594141255.9,286047007.2,N
1594141275.7,286047006.9,N
1594141295.6,286047007.3,N
1594141315.4,286047006.2,N
1594141335.2,286047008.7,N
1594141355.1,286047006.2,N
1594141356.0,286047006.2,N
1594141375.8,286047006.2,N
1594141395.7,286047006.9,N
1594141415.5,286047006.9,N
1594141435.3,286047006.4,N
1594141455.2,286047005.0,N
1594141475.0,286047006.2,N
1594141475.9,286047006.2,N
1594141495.8,286047006.2,N
1594141515.6,286047005.6,N
1594141535.4,286047006.3,N
1594141555.3,286047007.0,N
1594141575.1,286047010.8,Y
1594141595.8,286047003.1,P
1594141615.7,286047003.4,P
1594141635.5,286047003.7,P
1594141655.4,286047002.7,Y
1594141675.2,286046998.4,P
1594141695.0,286046996.6,N
1594141695.9,286046996.6,N
1594141715.8,286046996.7,N
1594141735.6,286046997.0,N
1594141755.5,286046996.6,N
1594141775.3,286046997.2,N
1594141795.1,286046998.3,N
1594141815.9,286047001.1,N
1594141835.7,286047001.9,N
1594141855.5,286047002.5,N
1594141875.4,286046998.1,N
1594141895.2,286046998.6,N
1594141915.1,286046999.9,N
1594141916.0,286046999.9,N
1594141935.8,286046999.9,N
1594141955.6,286047002.1,N
1594141975.5,286047000.9,N
1594141995.3,286047000.6,N
1594142015.1,286047002.6,N
1594142035.9,286047004.3,N
1594142055.7,286047003.2,N
1594142075.5,286047006.3,N
1594142095.4,286047006.6,N
1594142115.2,286047007.5,N
1594142135.1,286047007.9,N
1594142136.0,286047007.9,N
1594142155.8,286047010.0,N
1594142175.6,286047009.6,N
1594142195.5,286047008.9,N
1594142215.3,286047007.4,N
1594142235.1,286047009.2,N
1594142255.9,286047009.1,N
1594142275.7,286047008.9,N
1594142295.6,286047008.4,N
1594142315.4,286047006.6,N
1594142335.2,286047007.5,N
1594142355.1,286047007.2,N
1594142356.0,286047007.2,N
1594142375.8,286047009.2,N
1594142395.6,286047010.4,N
1594142415.5,286047008.0,N
1594142435.3,286047008.0,N
1594142455.2,286047006.1,N
1594142475.9,286047007.7,N
1594142495.7,286047009.6,Y
1594142515.6,286047003.3,P
1594142535.4,286047004.0,N
1594142555.2,286047004.4,P
1594142575.1,286047003.6,N
1594142576.0,286047003.6,Y
1594142595.8,286047000.8,P
1594142615.7,286046999.1,N
1594142635.5,286046998.6,N
1594142655.3,286047001.1,N
1594142675.2,286046998.3,N
1594142695.0,286046998.7,N
1594142695.9,286046998.7,N
1594142715.8,286047000.8,N
1594142735.6,286046999.0,N
1594142755.4,286047000.1,N
1594142775.3,286047001.4,N
1594142795.1,286047002.2,N
1594142815.8,286047002.4,N
1594142835.7,286047001.5,N
1594142855.5,286047004.0,N
1594142875.4,286047001.6,N
1594142895.2,286047004.3,N
1594142915.0,286047003.6,N
1594142915.9,286047003.6,N
1594142935.8,286047005.6,N
1594142955.6,286047004.4,N
1594142975.5,286047005.6,N
1594142995.3,286047005.6,N
1594143015.1,286047005.1,N
1594143035.9,286047006.7,N
1594143055.7,286047010.5,Y
1594143075.6,286047007.2,P
1594143095.4,286047007.1,N
1594143115.2,286047007.4,P
1594143135.1,286047006.4,N
1594143136.0,286047006.4,Y
1594143155.8,286047001.9,P
1594143175.7,286047003.4,N
1594143225.5,286047006.4,E
1594143235.5,286047005.7,N
1594143255.3,286047002.6,P
1594143275.1,286047001.7,N
1594143295.9,286047000.4,N
1594143315.7,286047000.1,N
1594143335.5,286047000.4,N
1594143355.4,286047000.0,N
1594143375.2,286047001.8,N
1594143395.1,286047002.8,N
1594143396.0,286047002.8,N
1594143415.8,286046999.7,N
1594143435.6,286047000.0,N
1594143455.5,286046998.7,N
1594143475.3,286047000.5,N
1594143495.1,286047002.7,N
1594143515.9,286047002.4,N
1594143535.7,286047001.9,N
1594143555.6,286047002.4,N
1594143575.4,286047000.7,N
1594143595.2,286046997.9,N
1594143615.1,286046995.6,N
1594143616.0,286046995.6,N
1594143635.8,286046993.6,N
1594143655.6,286046995.6,N
1594143675.5,286046995.5,N
1594143695.3,286046995.6,N
1594143715.2,286046995.8,N
1594143735.9,286046993.7,N
1594143755.7,286046994.0,N
1594143775.6,286046994.4,N
1594143795.4,286046997.5,N
1594143815.2,286046997.1,N
1594143835.1,286046996.7,N
1594143836.0,286046996.7,N
1594143855.8,286046997.3,N
1594143875.7,286046995.1,N
1594143895.5,286046998.9,N
1594143915.3,286046999.5,N
1594143935.2,286047001.2,N
1594143955.0,286047000.4,N
1594143955.9,286047000.4,N
1594143975.7,286047000.2,N
1594143995.6,286047001.9,N
1594144015.4,286047003.3,N
1594144035.3,286047005.2,N
1594144055.1,286047005.4,N
1594144056.0,286047005.4,N
1594144075.8,286047002.9,N
1594144095.7,286047004.3,N
1594144115.5,286047000.6,N
1594144135.3,286047001.2,N
1594144155.2,286047002.3,N
1594144175.0,286047002.3,N
1594144175.9,286047002.3,N
1594144195.8,286047000.4,N
1594144215.6,286047001.0,N
1594144235.4,286047002.3,N
1594144255.3,286047002.6,N
1594144275.1,286047001.2,N
1594144295.9,286047002.4,N
1594144315.7,286047001.9,N
1594144335.5,286047001.5,N
1594144355.4,286047003.6,N
1594144375.2,286047005.3,N
1594144395.0,286047007.1,Y
1594144395.9,286047007.1,P
1594144415.8,286047003.0,N
1594144435.6,286047005.5,N
1594144455.4,286047004.8,N
1594144475.3,286047004.5,N
1594144495.1,286047003.3,N
1594144515.9,286047005.6,Y
1594144535.7,286047000.4,P
1594144555.6,286046998.2,N
1594144575.4,286047002.8,N
1594144595.2,286047000.8,N
1594144615.1,286047000.4,N
1594144616.0,286047000.4,N
1594144635.8,286047000.7,N
1594144655.7,286046998.5,N
1594144675.5,286047000.4,N
1594144695.3,286046999.9,N
1594144715.2,286047001.6,N
1594144735.0,286047004.2,N
1594144735.9,286047004.2,N
1594144755.8,286047003.1,N
1594144775.6,286047004.1,N
1594144795.4,286047004.2,N
